Change the Weather History Date:

Thursday, August 14, 2014

  Actual Average Record
Temperature  
Mean Temperature 71 °F 77 °F  
Max Temperature 80 °F 86 °F 99 °F (2002)
Min Temperature 62 °F 68 °F 50 °F (1964)
Degree Days  
Heating Degree Days 0 0  
Month to date heating degree days 0 0  
Since 1 June heating degree days 0 11  
Since 1 July heating degree days 0 0  
Cooling Degree Days 6 12  
Month to date cooling degree days 147 177  
Year to date cooling degree days 934 934  
Since 1 June cooling degree days 851 843  
Growing Degree Days 21 (Base 50)    
Moisture  
Dew Point 54 °F    
Average Humidity 62    
Maximum Humidity 87    
Minimum Humidity 37    
Precipitation  
Precipitation 0.25 in 0.12 in 4.84 in (2011)
Month to date precipitation 2.11 1.65  
Year to date precipitation 34.37 26.17  
Snow  
Snow 0.00 in 0.00 in 0.00 in (1870)
Month to date snowfall 0.0 0.0  
Since 1 June snowfall 0.0 0.0  
Since 1 July snowfall 0.0 0.0  
Snow Depth 0.00 in    
Sea Level Pressure  
Sea Level Pressure 29.89 in    
Wind  
Wind Speed 9 mph (West)    
Max Wind Speed 26 mph    
Max Gust Speed 33 mph    
Visibility 10 miles    
Events Rain , Thunderstorm    
T = Trace of Precipitation, MM = Missing Value Source: NWS Daily Summary

Daily Weather History Graph

Daily Weather History Graph

Search for Another Location

Airport or City:

Trip Planner

Search our weather history database for the weather conditions in past years. The results will help you decide how hot, cold, wet, or windy it might be!

Date:

Astronomy

Aug. 14, 2014 Rise Set
Actual Time 6:11 AM EDT 7:58 PM EDT
Civil Twilight 5:42 AM EDT 8:27 PM EDT
Nautical Twilight 5:07 AM EDT 9:02 PM EDT
Astronomical Twilight 4:29 AM EDT 9:40 PM EDT
Moon 10:20 PM EDT (8/14) 10:45 AM EDT (8/14)
Length of Visible Light 14h 44m
Length of Day
13h 46m
Waning Gibbous, 79% of the Moon is Illuminated
Aug 14
Waning Gibbous
Aug 17
Last Quarter
Aug 25
New
Sep 2
First Quarter
Sep 8
Full

Hourly Weather History & Observations

Time (EDT) Temp. Dew Point Humidity Pressure Visibility Wind Dir Wind Speed Gust Speed Precip Events Conditions
12:54 AM 71.1 °F 55.9 °F 59% 29.86 in 10.0 mi West 10.4 mph - N/A   Clear
1:54 AM 69.1 °F 53.1 °F 57% 29.86 in 10.0 mi WNW 8.1 mph - N/A   Clear
2:54 AM 68.0 °F 51.1 °F 55% 29.86 in 10.0 mi West 10.4 mph - N/A   Clear
3:54 AM 66.0 °F 51.1 °F 59% 29.87 in 10.0 mi West 9.2 mph - N/A   Clear
4:54 AM 63.0 °F 52.0 °F 67% 29.87 in 10.0 mi West 6.9 mph - N/A   Clear
5:54 AM 64.0 °F 51.1 °F 63% 29.89 in 10.0 mi WNW 9.2 mph - N/A   Clear
6:54 AM 64.0 °F 51.1 °F 63% 29.91 in 10.0 mi WNW 10.4 mph - N/A   Partly Cloudy
7:54 AM 64.9 °F 51.1 °F 61% 29.93 in 10.0 mi WNW 11.5 mph - N/A   Partly Cloudy
8:54 AM 66.9 °F 50.0 °F 54% 29.93 in 10.0 mi NW 10.4 mph - N/A   Partly Cloudy
9:54 AM 70.0 °F 50.0 °F 49% 29.93 in 10.0 mi Calm Calm - N/A   Partly Cloudy
10:54 AM 73.0 °F 50.0 °F 44% 29.94 in 10.0 mi SW 10.4 mph - N/A   Partly Cloudy
11:54 AM 73.9 °F 48.0 °F 40% 29.92 in 10.0 mi SSW 10.4 mph - N/A   Scattered Clouds
12:54 PM 75.0 °F 48.9 °F 40% 29.91 in 10.0 mi SW 10.4 mph - N/A   Scattered Clouds
1:54 PM 77.0 °F 50.0 °F 39% 29.89 in 10.0 mi SW 10.4 mph - N/A   Mostly Cloudy
2:54 PM 78.1 °F 50.0 °F 37% 29.88 in 10.0 mi WSW 10.4 mph - N/A   Mostly Cloudy
3:54 PM 79.0 °F 52.0 °F 39% 29.87 in 10.0 mi WSW 19.6 mph 24.2 mph N/A   Scattered Clouds
4:54 PM 79.0 °F 53.1 °F 40% 29.86 in 10.0 mi SW 10.4 mph - N/A   Scattered Clouds
5:54 PM 79.0 °F 54.0 °F 42% 29.85 in 10.0 mi SW 11.5 mph - N/A   Scattered Clouds
6:54 PM 78.1 °F 55.9 °F 46% 29.85 in 10.0 mi SW 10.4 mph - N/A   Scattered Clouds
7:54 PM 75.9 °F 57.0 °F 52% 29.87 in 10.0 mi West 17.3 mph 23.0 mph N/A   Mostly Cloudy
7:59 PM 71.1 °F 57.9 °F 63% 29.87 in 5.0 mi NNW 24.2 mph 33.4 mph 0.00 in Rain , Thunderstorm Light Thunderstorms and Rain
8:09 PM 64.9 °F 60.1 °F 84% 29.87 in 5.0 mi North 12.7 mph 31.1 mph 0.16 in Rain , Thunderstorm Light Thunderstorms and Rain
8:16 PM 64.9 °F 60.1 °F 84% 29.87 in 10.0 mi NNE 6.9 mph - 0.25 in Rain Light Rain
8:54 PM 66.0 °F 61.0 °F 84% 29.88 in 10.0 mi East 4.6 mph - 0.25 in   Mostly Cloudy
9:54 PM 66.9 °F 63.0 °F 87% 29.90 in 10.0 mi Calm Calm - 0.00 in   Scattered Clouds
10:54 PM 66.9 °F 62.1 °F 84% 29.91 in 10.0 mi SW 3.5 mph - N/A   Scattered Clouds
11:54 PM 68.0 °F 55.9 °F 65% 29.92 in 10.0 mi NW 6.9 mph - N/A   Scattered Clouds